DW3800 Weather Reports


time (UTC)temp
F
wind
direction
speed
knots
gust
knots
rain 1hr
in
rain 24hr
in
rain mn
in
humidity
%
barometer
mb
20260502163433 54 119 4.3 7.0 0.00 0.00 0.00 41 1019.9
20260502162931 56 93 3.5 11.3 0.00 0.00 0.00 41 1020.2
20260502162427 55 125 0.9 5.2 0.00 0.00 0.00 42 1019.8
20260502161924 55 229 4.3 13.0 0.00 0.00 0.00 40 1020.0
20260502161420 55 202 2.6 6.1 0.00 0.00 0.00 40 1020.0
20260502160919 55 167 3.5 9.6 0.00 0.00 0.00 40 1020.0
20260502160417 55 225 3.5 7.8 0.00 0.00 0.00 40 1020.3
20260502151855 53 145 3.5 5.2 0.00 0.00 0.00 43 1020.7
20260502151351 53 229 3.5 5.2 0.00 0.00 0.00 44 1020.5
20260502150849 52 304 1.7 7.0 0.00 0.00 0.00 46 1020.7
20260502150345 53 238 5.2 7.0 0.00 0.00 0.00 43 1020.8
20260502130734 45 262 2.6 6.1 0.00 0.00 0.00 59 1021.3
20260502130231 44 207 1.7 2.6 0.00 0.00 0.00 61 1021.1
20260502123717 42 149 2.6 2.6 0.00 0.00 0.00 66 1021.1
20260502123214 42 221 1.7 2.6 0.00 0.00 0.00 66 1021.3
20260502122710 42 171 1.7 2.6 0.00 0.00 0.00 66 1021.1
20260502122207 42 225 0.9 1.7 0.00 0.00 0.00 66 1021.1
20260502121705 41 214 0.9 1.7 0.00 0.00 0.00 66 1021.1
20260502121203 41 213 0.9 1.7 0.00 0.00 0.00 67 1020.8
20260502120659 41 200 0.9 1.7 0.00 0.00 0.00 68 1021.1
20260502120156 40 211 0.9 1.7 0.00 0.00 0.00 67 1021.1
20260502115654 40 235 0.9 2.6 0.00 0.00 0.00 68 1021.1
20260502115149 40 208 1.7 2.6 0.00 0.00 0.00 68 1021.1
20260502114646 40 236 0.9 1.7 0.00 0.00 0.00 68 1021.1
20260502114143 39 228 1.7 1.7 0.00 0.00 0.00 69 1021.1
20260502113640 38 232 0.9 1.7 0.00 0.00 0.00 72 1021.0
20260502113133 37 251 0.9 0.9 0.00 0.00 0.00 75 1021.0
20260502112631 37 253 0.9 0.9 0.00 0.00 0.00 73 1020.8
20260502112128 37 231 0.0 0.9 0.00 0.00 0.00 74 1021.1
20260502111625 37 225 0.0 0.9 0.00 0.00 0.00 73 1020.9
20260502111123 38 224 0.0 0.0 0.00 0.00 0.00 72 1020.8
20260502110620 38 218 0.9 1.7 0.00 0.00 0.00 70 1021.0
20260502110117 38 230 0.0 0.9 0.00 0.00 0.00 70 1021.0
20260502105615 39 225 0.0 0.9 0.00 0.00 0.00 69 1020.8
20260502105112 39 233 0.9 0.9 0.00 0.00 0.00 68 1020.8
20260502104609 39 201 0.9 1.7 0.00 0.00 0.00 68 1020.8
20260502104106 39 201 0.0 0.9 0.00 0.00 0.00 68 1020.9
20260502103604 39 212 0.9 2.6 0.00 0.00 0.00 67 1021.0
20260502103102 39 227 0.9 0.9 0.00 0.00 0.00 67 1020.8
20260502102558 39 178 0.9 0.9 0.00 0.00 0.00 66 1020.8
20260502102055 40 201 0.9 1.7 0.00 0.00 0.00 65 1020.8
20260502101553 40 209 0.9 1.7 0.00 0.00 0.00 64 1020.6
20260502101051 40 206 3.5 4.3 0.00 0.00 0.00 64 1020.7
20260502100549 41 180 0.9 2.6 0.00 0.00 0.00 63 1020.9
20260502091524 42 225 4.3 6.1 0.00 0.00 0.00 60 1020.7
20260502091021 42 223 2.6 5.2 0.00 0.00 0.00 60 1020.6
20260502090518 42 195 1.7 2.6 0.00 0.00 0.00 60 1020.4
20260502071412 42 229 1.7 1.7 0.00 0.00 0.00 59 1021.0
20260502070911 42 174 0.9 1.7 0.00 0.00 0.00 59 1021.1
20260502070408 42 155 0.9 1.7 0.00 0.00 0.00 59 1021.1
20260502065907 42 216 0.0 1.7 0.00 0.00 0.00 59 1021.1
20260502065405 43 183 1.7 1.7 0.00 0.00 0.00 59 1021.0
20260502064903 42 219 0.9 2.6 0.00 0.00 0.00 59 1021.0
20260502064400 42 203 0.0 0.9 0.00 0.00 0.00 60 1021.2
20260502063857 42 202 0.0 0.9 0.00 0.00 0.00 60 1021.2
20260502063355 42 201 0.0 0.9 0.00 0.00 0.00 60 1021.2
20260502062852 42 193 0.9 1.7 0.00 0.00 0.00 60 1021.2
20260502062349 42 219 0.9 4.3 0.00 0.00 0.00 59 1021.1
20260502061848 42 210 0.9 1.7 0.00 0.00 0.00 58 1021.1
20260502061345 42 216 0.0 1.7 0.00 0.00 0.00 58 1021.2
20260502060841 42 183 0.0 0.9 0.00 0.00 0.00 59 1021.0
20260502060336 42 197 0.9 2.6 0.00 0.00 0.00 58 1021.1
20260502055834 42 220 0.0 0.9 0.00 0.00 0.00 58 1021.2
20260502055332 42 219 0.0 1.7 0.00 0.00 0.00 57 1021.1
20260502054831 43 233 0.9 0.9 0.00 0.00 0.00 57 1021.1
20260502054328 42 230 0.9 1.7 0.00 0.00 0.00 56 1021.2
20260502053826 43 223 0.0 0.9 0.00 0.00 0.00 56 1021.3
20260502053323 43 218 0.9 1.7 0.00 0.00 0.00 56 1021.3
20260502052820 43 233 0.9 0.9 0.00 0.00 0.00 55 1021.1
20260502052318 43 177 0.9 0.9 0.00 0.00 0.00 55 1021.0
20260502051816 43 197 0.9 0.9 0.00 0.00 0.00 55 1021.2
20260502051315 42 240 0.0 0.9 0.00 0.00 0.00 55 1021.3
20260502050810 42 213 0.0 0.9 0.00 0.00 0.00 55 1021.1
20260502050307 42 221 0.0 0.9 0.00 0.00 0.00 55 1021.1
20260502045804 42 230 0.0 0.0 0.00 0.00 0.00 55 1021.2
20260502045300 42 223 0.0 0.9 0.00 0.00 0.00 54 1021.1
20260502044758 42 228 0.9 0.9 0.00 0.00 0.00 53 1021.0
20260502044254 42 233 0.0 0.9 0.00 0.00 0.00 52 1021.0
20260502043751 42 229 0.0 0.0 0.00 0.00 0.00 52 1020.9
20260502043249 43 233 0.0 0.9 0.00 0.00 0.00 51 1021.0
20260502042748 43 228 0.9 0.9 0.00 0.00 0.00 51 1021.2
20260502042245 42 243 0.0 0.0 0.00 0.00 0.00 51 1021.1
20260502041743 43 236 0.0 0.0 0.00 0.00 0.00 51 1021.0
20260502041240 43 237 0.0 0.0 0.00 0.00 0.00 50 1021.1
20260502040737 43 241 0.0 0.0 0.00 0.00 0.00 50 1021.0
20260502040234 43 242 0.0 0.0 0.00 0.00 0.00 49 1021.0
20260502035730 43 230 0.0 0.0 0.00 0.00 0.00 50 1021.3
20260502035227 43 202 0.9 0.9 0.00 0.00 0.00 49 1021.1
20260502034724 42 199 0.0 1.7 0.00 0.00 0.00 51 1021.2
20260502034222 42 284 0.0 0.0 0.00 0.00 0.00 50 1021.1
20260502033720 43 284 0.0 0.0 0.00 0.00 0.00 49 1021.2
20260502033218 42 284 0.0 0.0 0.00 0.00 0.00 51 1021.2
20260502032714 42 284 0.0 0.0 0.00 0.00 0.00 51 1021.1
20260502032210 42 284 0.0 0.0 0.00 0.00 0.00 51 1021.1
20260502031708 42 284 0.0 0.0 0.00 0.00 0.00 53 1021.1
20260502031206 43 284 0.0 0.0 0.00 0.00 0.00 52 1021.2
20260502030705 43 284 0.0 0.0 0.00 0.00 0.00 54 1021.2
20260502030202 44 285 0.0 0.0 0.00 0.00 0.00 55 1021.1
20260502025659 44 284 0.0 0.0 0.00 0.00 0.00 47 1021.1
20260502025157 44 284 0.0 0.0 0.00 0.00 0.00 48 1021.2
20260502024654 44 284 0.0 0.0 0.00 0.00 0.00 47 1021.2
20260502024153 44 284 0.0 0.0 0.00 0.00 0.00 50 1021.1
20260502023650 44 284 0.0 0.0 0.00 0.00 0.00 48 1021.0
20260502023147 44 284 0.0 0.0 0.00 0.00 0.00 47 1021.1
20260502022644 44 284 0.0 0.0 0.00 0.00 0.00 49 1021.0
20260502022141 44 284 0.0 0.0 0.00 0.00 0.00 48 1020.9
20260502021639 44 284 0.0 0.0 0.00 0.00 0.00 50 1021.1
20260502021135 44 284 0.0 0.0 0.00 0.00 0.00 49 1020.9
20260502020633 45 284 0.0 0.0 0.00 0.00 0.00 48 1021.0
20260502020129 45 284 0.0 0.0 0.00 0.00 0.00 48 1021.1
20260502015628 45 284 0.0 0.0 0.00 0.00 0.00 44 1020.9
20260502015123 45 284 0.0 0.0 0.00 0.00 0.00 46 1020.9
20260502014621 45 284 0.0 0.0 0.00 0.00 0.00 46 1020.6
20260502014118 46 268 0.0 0.0 0.00 0.00 0.00 48 1020.7
20260502013614 46 267 0.0 0.0 0.00 0.00 0.00 45 1020.6
20260502013109 46 267 0.0 0.0 0.00 0.00 0.00 45 1020.7
20260502012608 47 267 0.0 0.0 0.00 0.00 0.00 43 1020.5
20260502012106 48 267 0.0 0.0 0.00 0.00 0.00 40 1020.6
20260502011602 48 280 0.0 0.0 0.00 0.00 0.00 40 1020.6
20260502011057 49 253 0.0 0.9 0.00 0.00 0.00 39 1020.5
20260502010555 50 232 0.0 0.9 0.00 0.00 0.00 38 1020.7
20260502010051 50 214 0.9 1.7 0.00 0.00 0.00 38 1020.7
20260502005549 50 260 0.0 0.9 0.00 0.00 0.00 39 1020.6
20260502005047 50 296 0.0 0.9 0.00 0.00 0.00 38 1020.5
20260502004542 51 276 0.0 0.9 0.00 0.00 0.00 37 1020.5
20260502004039 51 242 0.0 0.9 0.00 0.00 0.00 36 1020.4
20260502003537 51 255 0.9 1.7 0.00 0.00 0.00 35 1020.5
20260502003034 51 219 0.9 0.9 0.00 0.00 0.00 36 1020.5
20260502002530 52 245 0.9 2.6 0.00 0.00 0.00 34 1020.4
20260502002027 53 224 0.0 1.7 0.00 0.00 0.00 34 1020.4
20260502001525 52 260 0.9 5.2 0.00 0.00 0.00 34 1020.2
20260502001022 52 297 4.3 5.2 0.00 0.00 0.00 34 1020.4
20260502000521 52 303 2.6 2.6 0.00 0.00 0.00 34 1020.4
20260502000017 52 269 1.7 2.6 0.00 0.00 0.00 34 1020.3
20260501235513 52 34 1.7 4.3 0.00 0.00 0.00 34 1020.4
20260501235009 52 325 3.5 5.2 0.00 0.00 0.00 35 1020.5
20260501234504 53 267 3.5 4.3 0.00 0.00 0.00 34 1020.4
20260501234003 53 250 2.6 4.3 0.00 0.00 0.00 35 1020.3
20260501233501 53 260 2.6 6.1 0.00 0.00 0.00 35 1020.3
20260501232956 52 270 0.9 4.3 0.00 0.00 0.00 35 1020.5
20260501232453 52 305 2.6 5.2 0.00 0.00 0.00 35 1020.5
20260501231950 53 326 5.2 6.1 0.00 0.00 0.00 34 1020.5
20260501231449 52 11 2.6 2.6 0.00 0.00 0.00 35 1020.4
20260501230947 52 306 1.7 4.3 0.00 0.00 0.00 34 1020.5
20260501230446 53 269 5.2 6.1 0.00 0.00 0.00 34 1020.5
20260501225943 52 285 4.3 6.1 0.00 0.00 0.00 34 1020.3
20260501225440 52 232 2.6 4.3 0.00 0.00 0.00 35 1020.4
20260501224936 52 173 4.3 7.8 0.00 0.00 0.00 35 1020.4
20260501224433 53 279 2.6 5.2 0.00 0.00 0.00 33 1020.4
20260501223930 53 241 3.5 5.2 0.00 0.00 0.00 34 1020.6
20260501223426 52 349 2.6 4.3 0.00 0.00 0.00 35 1020.4
20260501222922 52 316 3.5 5.2 0.00 0.00 0.00 34 1020.5
20260501222420 52 324 0.9 1.7 0.00 0.00 0.00 38 1020.4
20260501221916 52 221 0.9 5.2 0.00 0.00 0.00 37 1020.3
20260501221413 53 199 2.6 6.1 0.00 0.00 0.00 34 1020.5
20260501220911 53 229 1.7 6.1 0.00 0.00 0.00 34 1020.6
20260501220408 53 291 2.6 2.6 0.00 0.00 0.00 35 1020.4
20260501215904 53 273 2.6 4.3 0.00 0.00 0.00 35 1020.6
20260501215401 53 343 4.3 7.8 0.00 0.00 0.00 35 1020.5
20260501214856 53 67 0.0 2.6 0.00 0.00 0.00 38 1020.4
20260501214352 53 157 0.0 1.7 0.00 0.00 0.00 36 1020.6
20260501213848 54 122 0.9 4.3 0.00 0.00 0.00 35 1020.6
20260501213345 54 280 4.3 7.0 0.00 0.00 0.00 36 1020.6
20260501212840 55 214 4.3 8.7 0.00 0.00 0.00 35 1020.7
20260501212337 53 172 0.0 4.3 0.00 0.00 0.00 39 1020.5
20260501211834 54 260 3.5 4.3 0.00 0.00 0.00 35 1020.4
20260501211331 53 233 0.9 5.2 0.00 0.00 0.00 37 1020.7
20260501210828 53 301 1.7 4.3 0.00 0.00 0.00 38 1020.7
20260501210325 53 237 1.7 2.6 0.00 0.00 0.00 36 1020.5
20260501205816 54 280 3.5 7.8 0.00 0.00 0.00 36 1020.9
20260501205313 52 175 0.9 11.3 0.00 0.00 0.00 36 1020.7
20260501204810 51 218 1.7 6.1 0.00 0.00 0.00 40 1020.9
20260501204307 51 297 2.6 6.1 0.00 0.00 0.00 37 1020.9
20260501203803 51 21 3.5 5.2 0.00 0.00 0.00 38 1021.0
20260501203300 52 332 2.6 6.1 0.00 0.00 0.00 36 1020.7
20260501202757 52 8 2.6 5.2 0.00 0.00 0.00 37 1020.9
20260501202254 52 292 0.9 2.6 0.00 0.00 0.00 38 1021.0
20260501201751 51 262 6.1 6.1 0.00 0.00 0.00 38 1020.7
20260501201247 52 319 4.3 6.1 0.00 0.00 0.00 38 1020.7
20260501200744 51 31 2.6 6.1 0.00 0.00 0.00 39 1020.9
20260501200241 51 99 0.0 2.6 0.00 0.00 0.00 39 1021.1
20260501195739 51 224 0.9 1.7 0.00 0.00 0.00 37 1021.0
20260501195234 50 256 1.7 4.3 0.00 0.00 0.00 37 1021.2
20260501194731 52 255 0.9 7.8 0.00 0.00 0.00 36 1021.0
20260501194227 50 273 4.3 7.8 0.00 0.00 0.00 37 1021.2
20260501193723 51 332 4.3 7.0 0.00 0.00 0.00 37 1021.0
20260501193222 52 251 4.3 6.1 0.00 0.00 0.00 36 1020.9
20260501192719 52 223 4.3 7.0 0.00 0.00 0.00 36 1021.2
20260501192216 51 333 2.6 5.2 0.00 0.00 0.00 36 1021.0
20260501191713 51 228 0.9 2.6 0.00 0.00 0.00 37 1021.0
20260501191210 51 283 1.7 4.3 0.00 0.00 0.00 40 1021.0
20260501190707 51 286 2.6 4.3 0.00 0.00 0.00 37 1021.0
20260501190202 50 275 2.6 4.3 0.00 0.00 0.00 39 1021.1
20260501185658 50 161 1.7 2.6 0.00 0.00 0.00 38 1021.1
20260501185154 50 158 0.9 2.6 0.00 0.00 0.00 39 1021.0
20260501184650 49 257 1.7 6.1 0.00 0.00 0.00 40 1021.3
20260501184145 49 284 4.3 7.8 0.00 0.00 0.00 39 1021.2
20260501183642 50 254 1.7 6.1 0.00 0.00 0.00 40 1021.1
20260501183138 49 279 2.6 5.2 0.00 0.00 0.00 39 1021.1
20260501182635 49 331 4.3 7.8 0.00 0.00 0.00 39 1021.1
20260501182131 50 61 2.6 7.8 0.00 0.00 0.00 39 1021.3
20260501181629 50 262 4.3 9.6 0.00 0.00 0.00 39 1021.2
20260501181125 49 8 1.7 6.1 0.00 0.00 0.00 41 1021.2
20260501180624 50 296 4.3 7.8 0.00 0.00 0.00 39 1021.4
20260501180120 51 320 0.9 5.2 0.00 0.00 0.00 39 1021.3
20260501175617 48 150 1.7 4.3 0.00 0.00 0.00 41 1021.3
20260501175114 50 219 3.5 7.0 0.00 0.00 0.00 40 1021.3
20260501174610 49 269 6.1 8.7 0.00 0.00 0.00 40 1021.2
20260501174108 50 225 2.6 4.3 0.00 0.00 0.00 38 1021.5
20260501173605 49 191 1.7 6.1 0.00 0.00 0.00 38 1021.6
20260501173102 49 268 2.6 7.0 0.00 0.00 0.00 38 1021.5
20260501172557 48 250 2.6 7.0 0.00 0.00 0.00 39 1021.5
20260501172053 48 332 5.2 7.0 0.00 0.00 0.00 38 1021.6
20260501171549 48 101 0.0 9.6 0.00 0.00 0.00 42 1021.6
20260501171046 48 232 1.7 6.1 0.00 0.00 0.00 40 1021.6
20260501170543 48 297 3.5 4.3 0.00 0.00 0.00 40 1021.5
20260501170040 48 338 4.3 7.8 0.00 0.00 0.00 40 1021.6
20260501165538 47 234 3.5 6.1 0.00 0.00 0.00 41 1021.5
20260501165035 48 228 1.7 7.0 0.00 0.00 0.00 42 1021.4
20260501164533 48 333 5.2 11.3 0.00 0.00 0.00 41 1021.5
20260501164029 48 321 1.7 7.0 0.00 0.00 0.00 41 1021.6